Date String (YYYY-MM-DD hh:mm:ss) UTC,Instrument flags,Ambient pressure (hPa),Sample flow (lpm),Bypass flow (lpm),Sample temperature (°C),Ambient temperature (°C),ASC tube jacket temperature (°C),LED temperature (°C),Box temperature (°C),Sample RH (%),Mass concentration (μg/m³),Mass concentration (μg/m³)
DateTimeUTC,F1_M11,P_M11,Q1_M11,Q2_M11,T1_M11,T2_M11,T3_M11,T4_M11,T5_M11,U1_M11,X0_M11,X2_M11
2021-08-16 22:00:00,,0826.5,5.01,0.00,28.8,27.0,00.0,37.9,30.6,19.1,0031.50,0021.73
2021-08-16 22:01:00,,0826.5,4.99,0.00,28.9,27.3,00.0,37.9,30.8,19.6,0031.61,0021.70
2021-08-16 22:02:00,,0826.5,5.00,0.00,29.0,27.6,00.0,37.9,30.9,19.6,0031.89,0021.75
2021-08-16 22:03:00,,0826.5,5.01,0.00,29.0,27.9,00.0,37.9,31.0,19.2,0031.90,0021.79
2021-08-16 22:04:00,,0826.4,5.00,0.00,29.0,26.8,00.0,37.9,30.6,19.3,0032.55,0021.92
2021-08-16 22:05:00,,0826.5,4.99,0.00,28.9,25.7,00.0,37.9,30.2,18.7,0032.30,0021.92
2021-08-16 22:06:00,,0826.4,5.00,0.00,28.8,26.0,00.0,37.9,30.3,19.0,0032.26,0021.98
2021-08-16 22:07:00,,0826.4,5.00,0.00,28.8,26.4,00.0,37.9,30.5,19.0,0032.08,0022.06
2021-08-16 22:08:00,,0826.4,5.00,0.00,28.8,26.8,00.0,37.9,30.6,18.8,0031.72,0022.09
2021-08-16 22:09:00,,0826.4,5.01,0.00,28.9,27.2,00.0,37.9,30.7,18.8,0031.94,0022.11
2021-08-16 22:10:00,,0826.4,5.01,0.00,28.9,27.6,00.0,37.9,30.9,18.8,0031.92,0022.16
2021-08-16 22:11:00,,0826.4,4.99,0.00,29.0,27.8,00.0,37.9,31.0,18.9,0032.88,0022.22
2021-08-16 22:12:00,,0826.4,5.01,0.00,29.0,26.8,00.0,37.9,30.6,18.7,0032.84,0022.21
2021-08-16 22:13:00,,0826.4,4.99,0.00,28.8,25.6,00.0,37.9,30.2,18.5,0032.63,0022.18
2021-08-16 22:14:00,,0826.3,5.00,0.00,28.8,25.9,00.0,37.9,30.3,18.0,0033.10,0022.27
2021-08-16 22:15:00,,0826.3,5.02,0.00,28.8,26.3,00.0,37.9,30.4,18.0,0033.35,0022.33
2021-08-16 22:16:00,,0826.2,4.99,0.00,28.8,26.7,00.0,37.9,30.5,18.4,0033.78,0022.41
2021-08-16 22:17:00,,0826.3,5.00,0.00,28.8,27.1,00.0,37.9,30.7,18.6,0033.80,0022.41
2021-08-16 22:18:00,,0826.4,4.99,0.00,28.9,27.4,00.0,37.9,30.8,19.1,0033.54,0022.43
2021-08-16 22:19:00,,0826.3,5.00,0.00,29.0,27.8,00.0,37.9,30.9,18.3,0035.29,0022.50
2021-08-16 22:20:00,,0826.2,5.00,0.00,29.0,27.6,00.0,37.9,30.9,18.4,0035.57,0022.59
2021-08-16 22:21:00,,0826.3,5.01,0.00,29.0,26.1,00.0,37.9,30.4,18.7,0036.19,0022.64
2021-08-16 22:22:00,,0826.2,4.99,0.00,28.8,25.6,00.0,37.9,30.3,18.7,0036.08,0022.75
2021-08-16 22:23:00,,0826.2,4.99,0.00,28.8,26.1,00.0,37.9,30.4,18.8,0035.95,0022.87
2021-08-16 22:24:00,,0826.2,5.01,0.00,28.8,26.5,00.0,37.9,30.5,18.8,0036.92,0022.99
2021-08-16 22:25:00,,0826.2,5.00,0.00,28.8,26.9,00.0,37.9,30.6,19.1,0037.19,0023.01
2021-08-16 22:26:00,,0826.2,5.01,0.00,28.9,27.3,00.0,37.9,30.8,19.5,0036.81,0022.96
2021-08-16 22:27:00,,0826.2,4.99,0.00,29.0,27.7,00.0,37.9,30.9,18.5,0036.69,0023.01
2021-08-16 22:28:00,,0826.2,4.99,0.00,29.0,28.0,00.0,37.9,31.0,18.5,0036.64,0023.05
2021-08-16 22:29:00,,0826.2,4.98,0.00,29.0,27.1,00.0,37.9,30.7,18.4,0036.83,0023.08
2021-08-16 22:30:00,,0826.2,5.01,0.00,28.9,25.7,00.0,37.9,30.2,18.4,0036.18,0023.08
2021-08-16 22:31:00,,0826.1,4.99,0.00,28.8,25.9,00.0,37.9,30.3,18.3,0036.89,0023.15
2021-08-16 22:32:00,,0826.2,5.01,0.00,28.8,26.3,00.0,37.9,30.4,18.4,0036.43,0023.25
2021-08-16 22:33:00,,0826.2,4.99,0.00,28.8,26.7,00.0,37.9,30.5,18.8,0035.85,0023.28
2021-08-16 22:34:00,,0826.1,5.01,0.00,28.9,27.1,00.0,37.9,30.7,18.7,0036.38,0023.34
2021-08-16 22:35:00,,0826.2,4.99,0.00,28.9,27.6,00.0,37.9,30.8,18.6,0035.92,0023.41
2021-08-16 22:36:00,,0826.2,5.00,0.00,29.0,27.8,00.0,37.9,30.9,18.7,0035.67,0023.43
2021-08-16 22:37:00,,0826.2,5.00,0.00,29.0,27.0,00.0,37.9,30.7,18.7,0035.63,0023.54
2021-08-16 22:38:00,,0826.2,5.01,0.00,28.9,25.7,00.0,37.9,30.3,18.6,0035.30,0023.55
2021-08-16 22:39:00,,0826.2,5.00,0.00,28.8,25.9,00.0,37.9,30.3,18.8,0035.49,0023.53
2021-08-16 22:40:00,,0826.2,4.99,0.00,28.8,26.3,00.0,37.9,30.4,19.0,0035.66,0023.59
2021-08-16 22:41:00,,0826.2,5.00,0.00,28.8,26.7,00.0,37.9,30.5,19.0,0035.28,0023.66
2021-08-16 22:42:00,,0826.2,4.98,0.00,28.9,27.2,00.0,37.9,30.7,18.8,0034.35,0023.66
2021-08-16 22:43:00,,0826.2,5.01,0.00,28.9,27.5,00.0,37.9,30.8,18.6,0035.03,0023.71
2021-08-16 22:44:00,,0826.2,4.99,0.00,29.0,27.8,00.0,37.9,30.9,18.5,0035.36,0023.81
2021-08-16 22:45:00,,0826.1,5.00,0.00,29.0,27.7,00.0,37.9,30.9,18.5,0034.90,0023.87
2021-08-16 22:46:00,,0826.1,5.02,0.00,29.0,26.2,00.0,37.9,30.5,19.1,0035.32,0023.92
2021-08-16 22:47:00,,0826.0,4.99,0.00,28.8,25.7,00.0,37.9,30.3,19.2,0034.72,0023.94
2021-08-16 22:48:00,,0826.0,5.00,0.00,28.8,26.1,00.0,37.9,30.4,19.0,0034.73,0023.95
2021-08-16 22:49:00,,0826.0,5.01,0.00,28.8,26.5,00.0,37.9,30.5,18.9,0035.25,0023.90
2021-08-16 22:50:00,,0826.0,4.99,0.00,28.8,26.9,00.0,37.9,30.6,19.3,0034.74,0023.87
2021-08-16 22:51:00,,0826.0,5.00,0.00,28.9,27.3,00.0,37.9,30.7,19.2,0034.39,0023.84
2021-08-16 22:52:00,,0826.0,5.01,0.00,29.0,27.6,00.0,37.9,30.9,18.8,0033.73,0023.78
2021-08-16 22:53:00,,0826.0,4.98,0.00,29.0,27.6,00.0,37.9,30.9,19.1,0033.74,0023.69
2021-08-16 22:54:00,,0826.0,5.01,0.00,28.9,26.1,00.0,37.9,30.4,19.1,0035.02,0023.66
2021-08-16 22:55:00,,0826.1,5.01,0.00,28.8,25.6,00.0,37.9,30.2,18.5,0034.79,0023.59
2021-08-16 22:56:00,,0826.0,5.01,0.00,28.8,26.0,00.0,37.9,30.3,18.3,0034.55,0023.55
2021-08-16 22:57:00,,0826.0,4.98,0.00,28.8,26.4,00.0,37.9,30.4,17.9,0034.06,0023.50
2021-08-16 22:58:00,,0826.0,5.00,0.00,28.8,26.9,00.0,37.9,30.6,17.9,0035.32,0023.50
2021-08-16 22:59:00,,0826.0,5.01,0.00,28.9,27.3,00.0,37.9,30.7,18.3,0035.15,0023.45
